User: anonymous   Login
Location: Pallagorio
(39.3000°N, 16.9000°E)
Time: 16:08:30
(UTC+00:00)
Language:

CZ-2C R/B - Orbit

View from above orbital plane
View from above orbital plane
View from above satellite
View from above satellite

Ground track
Ground track

The orbit data is extracted from the following two-line orbital elements,

1 28480U 04046B   21107.92609019  .00000000  00000-0  14778-4 0  9994
2 28480  98.0539 124.8011 0142772  43.6077  17.7500 14.25749382853804
Epoch (UTC): 17 April 2021 22:13:34
Eccentricity: 0.0142772
inclination: 98.0539°
perigee height: 703 km
apogee height: 908 km
right ascension of ascending node: 124.8011°
argument of perigee: 43.6077°
revolutions per day: 14.25749382
mean anomaly at epoch: 17.7500°
orbit number at epoch: 85380

The dashed part of the orbit path shows where the satellite is in the earth's shadow,  

DLR